Regional Weather Roundup
Issued by NWS Sterling, VA

Home | Current Version | Previous Version | Text Only | Print | Product List | Glossary On
Versions: 1 2 3 4 5 6 7 8 9 10 11 12 13 14 15 16 17 18 19 20 21 22 23 24 25 26 27 28 29 30 31 32 33 34 35 36 37 38 39 40 41 42 43 44 45 46 47 48 49 50
000
ASUS41 KLWX 012310
RWRLWX

REGIONAL WEATHER ROUNDUP
NATIONAL WEATHER SERVICE BALTIMORE MD/WASHINGTON DC
700 PM EDT WED OCT 01 2014

Note: "FAIR" indicates few or no clouds below 12,000 feet
with no significant weather and/or obstructions to visibility.
 TC=TEMPERATURE CELSIUS

 * =Non NWS site. Station does not report precipitation (e.g. rain,
    snow, etc.), thunder, or fog.

DCZ001-MDZ009-015-VAZ040>042-051-053>054-020000-
WASHINGTON METRO

CITY           SKY/WX    TMP DP  RH WIND       PRES   REMARKS
WASHINGTON NAT PTCLDY    73  60  63 NE6       30.02S
DULLES         MOCLDY    67  60  78 E3        30.03R
ANDREWS AFB    CLEAR     66  60  81 E3        30.02S
QUANTICO       MOCLDY    71  62  73 VRB7      30.03R
COLLEGE PARK*  PTCLDY    68  63  83 CALM      30.02S
LEESBURG*      CLEAR     68  63  83 CALM      30.04R
MANASSAS*      CLEAR     66  63  88 CALM      30.03R
GAITHERSBURG*  CLEAR     64  57  77 CALM      30.07R

$$

MDZ006>007-011-014-020000-
BALTIMORE METRO

CITY           SKY/WX    TMP DP  RH WIND       PRES   REMARKS
BWI AIRPORT    PTCLDY    70  58  65 VRB3      30.02R
MD SCIENCE CTR   N/A     71  58  63 MISG      30.03R
MARTIN STATE   PTCLDY    70  64  83 CALM      30.03R
ANNAPOLIS      CLEAR     70  62  76 CALM      30.02R
FORT MEADE*    CLEAR     63  61  94 CALM      30.05R

$$

MDZ012-015-019>023-020000-
MARYLAND EASTERN SHORE

CITY           SKY/WX    TMP DP  RH WIND       PRES   REMARKS
OCEAN CITY     MOCLDY    66  61  84 NE6       30.01S
SALISBURY      CLEAR     68  58  70 N3        30.01R
BAY BRIDGE AP*   N/A     68  59  73 N3        30.02S
CAMBRIDGE*     CLEAR     66  61  82 CALM      30.01S
EASTON*        PTCLDY    68  63  83 CALM      30.06R

$$

MDZ017>025-020000-
SOUTHERN MARYLAND

CITY           SKY/WX    TMP DP  RH WIND       PRES   REMARKS
PATUXENT RIVER PTCLDY    68  60  75 N7        30.02R
ST INIGOES     CLEAR     68  59  73 CALM      30.01R
LEONARDTOWN*   CLEAR     64  57  77 CALM      30.04R

$$

MDZ003>005-020000-
NORTH CENTRAL MARYLAND

CITY           SKY/WX    TMP DP  RH WIND       PRES   REMARKS
FREDERICK*     CLEAR     70  63  78 CALM      30.06R
HAGERSTOWN APT CLEAR     66  58  75 NE5       30.04R
WESTMINSTER*   CLEAR     64  57  77 NE3       30.04S

$$

MDZ501>502-020000-
WESTERN MARYLAND

CITY           SKY/WX    TMP DP  RH WIND       PRES   REMARKS
OAKLAND*       CLEAR     57 N/A N/A SE6       30.08R
CUMBERLAND*    MOCLDY    70  57  64 E5        30.07R

$$

VAZ025>031-020000-
SHENANDOAH VALLEY

CITY           SKY/WX    TMP DP  RH WIND       PRES   REMARKS
WINCHESTER*    PTCLDY    64  61  88 CALM      30.04R
STAUNTON*      CLOUDY    70  58  67 CALM      30.04R

$$

WVZ021-048>050-054>055-020000-
EASTERN WEST VIRGINIA PANHANDLE

CITY           SKY/WX    TMP DP  RH WIND       PRES   REMARKS
MARTINSBURG    CLEAR     65  59  81 CALM      30.04R
PETERSBURG*    CLOUDY   N/A N/A N/A CALM      30.04R

$$

VAZ036>039-050-020000-
CENTRAL FOOTHILLS

CITY           SKY/WX    TMP DP  RH WIND       PRES   REMARKS
CHARLOTTESVILL CLOUDY    69  62  78 N3        30.02R
ORANGE*        CLOUDY    68  63  83 CALM      30.04R

$$

VAZ055>057-020000-
NORTH AND CENTRAL PIEDMONT

CITY           SKY/WX    TMP DP  RH WIND       PRES   REMARKS
FREDERICKSBRG* CLOUDY    72  63  73 CALM      30.01R
STAFFORD*      PTCLDY    68  62  79 CALM      30.06R

$$

NCZ024-NYZ072-PAZ021-071-VAZ022-071-020000-
OTHER REGIONAL OBSERVATIONS

CITY           SKY/WX    TMP DP  RH WIND       PRES   REMARKS
NEW YORK CITY  CLOUDY    64  57  78 VRB6      30.07R
PHILADELPHIA   PTCLDY    66  57  72 E8        30.04R
PITTSBURGH     PTCLDY    64  57  78 NE3       30.02S
ROANOKE        PTCLDY    71  62  73 SE7       30.04R
RICHMOND       MOCLDY    70  64  81 E5        30.01R
RALEIGH        MOCLDY    70  63  78 CALM      30.01R

$$

ANZ530>537-020000-
MARINE OBSERVATIONS

STATION/POSITION TIME  TEMP    WIND        PRES
                       AIR SEA DIR/SP/G
                 (UTC) (F)     (DEG/KT/KT) (MB)
THOMAS PT LIGHT  2300   71 72   10/  8/  8 1017.5R
BALT KEY BRIDGE  2300   71      90/  2/  2 1016.4R
COVE POINT       2300   70      10/  9/ 11 1016.3R
LEWISETTA        2300   70 72   40/  6/  8 1015.9R
SOLOMONS ISLAND  2300      72                N/A
PINEY POINT      2300           50/  5/  6   N/A

$$




USA.gov is the U.S. government's official web portal to all federal, state and local government web resources and services.